| time (UTC) | temp C | wind direction | speed KPH | gust KPH | rain 1hr cm | rain 24hr cm | rain mn cm | humidity % | barometer mb |
| 20260504031556 | 13 | 212 | 6.4 | 17.7 | 0.00 | 0.00 | 0.00 | 29 | 1015.1 |
| 20260504030121 | 13 | 210 | 4.8 | 17.7 | 0.00 | 0.00 | 0.00 | 30 | 1015.1 |
| 20260504024600 | 13 | 171 | 4.8 | 19.3 | 0.00 | 0.00 | 0.00 | 30 | 1014.9 |
| 20260504023057 | 13 | 224 | 6.4 | 20.9 | 0.00 | 0.00 | 0.00 | 30 | 1014.9 |
| 20260504021557 | 13 | 184 | 6.4 | 17.7 | 0.00 | 0.00 | 0.00 | 28 | 1014.8 |
| 20260504020107 | 13 | 201 | 4.8 | 14.5 | 0.00 | 0.00 | 0.00 | 27 | 1014.8 |
| 20260504014604 | 14 | 119 | 6.4 | 14.5 | 0.00 | 0.00 | 0.00 | 27 | 1014.9 |
| 20260504013058 | 14 | 229 | 3.2 | 6.4 | 0.00 | 0.00 | 0.00 | 27 | 1014.8 |
| 20260504011556 | 15 | 192 | 6.4 | 14.5 | 0.00 | 0.00 | 0.00 | 26 | 1014.6 |
| 20260504010058 | 15 | 262 | 1.6 | 8.0 | 0.00 | 0.00 | 0.00 | 25 | 1014.8 |
| 20260504004556 | 15 | 218 | 1.6 | 12.9 | 0.00 | 0.00 | 0.00 | 26 | 1014.9 |
| 20260504003057 | 15 | 105 | 3.2 | 20.9 | 0.00 | 0.00 | 0.00 | 26 | 1015.0 |
| 20260504001606 | 15 | 224 | 3.2 | 11.3 | 0.00 | 0.00 | 0.00 | 27 | 1015.1 |
| 20260504000058 | 15 | 204 | 1.6 | 19.3 | 0.00 | 0.00 | 0.00 | 28 | 1015.1 |
| 20260503234556 | 16 | 231 | 1.6 | 9.7 | 0.00 | 0.00 | 0.00 | 25 | 1015.3 |
| 20260503233101 | 15 | 152 | 1.6 | 11.3 | 0.00 | 0.00 | 0.00 | 25 | 1015.3 |
| 20260503231556 | 15 | 199 | 4.8 | 30.6 | 0.00 | 0.00 | 0.00 | 26 | 1015.4 |
| 20260503230054 | 16 | 187 | 0.0 | 11.3 | 0.00 | 0.00 | 0.00 | 24 | 1014.9 |
| 20260503224554 | 16 | 110 | 4.8 | 11.3 | 0.00 | 0.00 | 0.00 | 24 | 1014.6 |
| 20260503223055 | 15 | 97 | 1.6 | 12.9 | 0.00 | 0.00 | 0.00 | 26 | 1015.3 |
| 20260503221555 | 16 | 27 | 3.2 | 14.5 | 0.00 | 0.00 | 0.00 | 23 | 1015.1 |
| 20260503220056 | 17 | 64 | 1.6 | 11.3 | 0.00 | 0.00 | 0.00 | 21 | 1015.2 |
| 20260503214603 | 17 | 35 | 3.2 | 9.7 | 0.00 | 0.00 | 0.00 | 22 | 1015.3 |
| 20260503213058 | 18 | 91 | 6.4 | 16.1 | 0.00 | 0.00 | 0.00 | 20 | 1015.5 |
| 20260503211557 | 18 | 27 | 3.2 | 11.3 | 0.00 | 0.00 | 0.00 | 19 | 1015.7 |
| 20260503210055 | 17 | 298 | 6.4 | 24.1 | 0.00 | 0.00 | 0.00 | 20 | 1016.2 |
| 20260503204602 | 17 | 237 | 4.8 | 14.5 | 0.00 | 0.00 | 0.00 | 19 | 1016.3 |
| 20260503203055 | 18 | 184 | 4.8 | 11.3 | 0.00 | 0.00 | 0.00 | 17 | 1016.4 |
| 20260503201556 | 18 | 289 | 3.2 | 16.1 | 0.00 | 0.00 | 0.00 | 17 | 1016.5 |
| 20260503200059 | 17 | 205 | 3.2 | 16.1 | 0.00 | 0.00 | 0.00 | 17 | 1016.5 |
| 20260503194556 | 17 | 45 | 4.8 | 19.3 | 0.00 | 0.00 | 0.00 | 17 | 1016.5 |
| 20260503193110 | 17 | 209 | 4.8 | 17.7 | 0.00 | 0.00 | 0.00 | 17 | 1016.7 |
| 20260503191554 | 18 | 154 | 4.8 | 17.7 | 0.00 | 0.00 | 0.00 | 16 | 1016.7 |
| 20260503190108 | 17 | 234 | 3.2 | 12.9 | 0.00 | 0.00 | 0.00 | 16 | 1017.1 |
| 20260503184601 | 17 | 25 | 3.2 | 9.7 | 0.00 | 0.00 | 0.00 | 17 | 1017.3 |
| 20260503183110 | 17 | 3 | 3.2 | 12.9 | 0.00 | 0.00 | 0.00 | 17 | 1017.7 |
| 20260503181554 | 17 | 210 | 1.6 | 9.7 | 0.00 | 0.00 | 0.00 | 18 | 1018.0 |
| 20260503180100 | 17 | 72 | 1.6 | 9.7 | 0.00 | 0.00 | 0.00 | 19 | 1018.1 |
| 20260503174557 | 16 | 23 | 1.6 | 12.9 | 0.00 | 0.00 | 0.00 | 19 | 1018.3 |
| 20260503173115 | 15 | 259 | 3.2 | 8.0 | 0.00 | 0.00 | 0.00 | 20 | 1018.5 |
| 20260503171555 | 15 | 216 | 1.6 | 8.0 | 0.00 | 0.00 | 0.00 | 21 | 1018.8 |
| 20260503160111 | 14 | 178 | 3.2 | 20.9 | 0.00 | 0.00 | 0.00 | 23 | 1019.2 |
| 20260503150111 | 12 | 237 | 4.8 | 16.1 | 0.00 | 0.00 | 0.00 | 27 | 1019.3 |
| 20260503140119 | 11 | 210 | 4.8 | 16.1 | 0.00 | 0.00 | 0.00 | 28 | 1019.7 |
| 20260503110110 | 11 | 238 | 8.0 | 17.7 | 0.00 | 0.00 | 0.00 | 26 | 1018.7 |
| 20260503100107 | 10 | 0 | 3.2 | 11.3 | 0.00 | 0.00 | 0.00 | 29 | 1019.0 |
| 20260503081615 | 10 | 221 | 3.2 | 14.5 | 0.00 | 0.00 | 0.00 | 30 | 1019.7 |
| 20260503071607 | 10 | 221 | 3.2 | 14.5 | 0.00 | 0.00 | 0.00 | 28 | 1020.1 |
| 20260503060103 | 9 | 278 | 3.2 | 8.0 | 0.00 | 0.00 | 0.00 | 23 | 1020.3 |
| 20260503054556 | 9 | 205 | 1.6 | 9.7 | 0.00 | 0.00 | 0.00 | 22 | 1020.3 |
| 20260503053058 | 10 | 222 | 4.8 | 14.5 | 0.00 | 0.00 | 0.00 | 19 | 1020.3 |
| 20260503051559 | 10 | 228 | 3.2 | 9.7 | 0.00 | 0.00 | 0.00 | 20 | 1020.2 |
| 20260503050057 | 11 | 233 | 3.2 | 9.7 | 0.00 | 0.00 | 0.00 | 17 | 1020.3 |
| 20260503044554 | 11 | 241 | 0.0 | 6.4 | 0.00 | 0.00 | 0.00 | 17 | 1020.3 |
| 20260503043057 | 11 | 238 | 3.2 | 9.7 | 0.00 | 0.00 | 0.00 | 18 | 1020.4 |
| 20260503041556 | 10 | 229 | 1.6 | 8.0 | 0.00 | 0.00 | 0.00 | 18 | 1020.6 |
| 20260503040055 | 11 | 244 | 1.6 | 8.0 | 0.00 | 0.00 | 0.00 | 18 | 1020.5 |
| 20260503034556 | 11 | 0 | 0.0 | 1.6 | 0.00 | 0.00 | 0.00 | 18 | 1020.4 |
| 20260503033127 | 11 | 233 | 1.6 | 8.0 | 0.00 | 0.00 | 0.00 | 18 | 1020.4 |